TIME,DELAY(SENSOR),PRES,OXYGEN,RAWTEMP,T(OPTODE),TCPHASE,FLUOR,BETA(BETA700),BETA(BETA412),BETA(BETA440),CDOM,C(CSC),ED(ED412.20),ED(ED444.00),ED(ED489.60),ED(ED554.30),LU(LU412.10),LU(LU443.90),LU(LU489.70),LU(LU554.70),COMP,TILTX,TILTY,CHECK
1355973393,5809,899.6799926757812000,35.0912094116210940,563.4006958007812000,4.3804531097412110,56.3003387451171900,55,100,99,77,82,15556,0,0,0,0,2147125851,2147772297,2147573705,2147571346,1306,3,13,17413
1355976989,5809,955.9400024414062000,40.6481590270996100,568.5256958007812000,4.2213668823242190,55.5009193420410160,55,98,101,77,82,15554,0,0,0,0,2147123702,2147779337,2147573723,2147571346,3503,3,13,39389
1355980589,5809,965.7700195312500000,40.2717208862304700,568.4746704101562000,4.2229518890380860,55.5545082092285160,55,98,100,77,82,15547,0,0,0,0,2147124342,2147774509,2147575725,2147569737,3408,3,13,36616
1355984189,5808,1000.0399780273438000,41.5340385437011700,570.4694213867188000,4.1609730720520020,55.3946914672851560,56,99,99,77,83,15544,0,0,0,0,2147125449,2147776384,2147577856,2147570249,327,3,13,58211
1355987789,5810,1002.9099731445312000,41.5758895874023440,571.5333862304688000,4.1278991699218750,55.3937606811523440,54,99,100,78,83,15542,0,0,0,0,2147124361,2147776018,2147575881,2147569280,449,3,13,54477
1355991389,5809,1005.1799926757812000,41.8729095458984400,572.0620727539062000,4.1114640235900880,55.3628616333007800,54,100,100,78,82,15542,0,0,0,0,2147125988,2147771812,2147574637,2147567414,3168,2,13,15812
1355994989,5811,1015.3400268554688000,42.1080589294433600,571.7678222656250000,4.1206111907958980,55.3202896118164060,55,99,101,78,81,15541,0,0,0,0,2147123748,2147775478,2147578953,2147570139,3444,3,13,54605
1355998589,5810,1020.4199829101562000,41.2165489196777340,570.7531127929688000,4.1521568298339840,55.4445610046386700,55,101,100,78,82,15540,0,0,0,0,2147121371,2147773412,2147574272,2147572434,330,3,13,51161
1356002189,5810,1012.8900146484375000,41.2208290100097660,571.3438720703125000,4.1337928771972660,55.4474296569824200,55,100,101,78,81,15542,0,0,0,0,2147123456,2147774345,2147571675,2147567579,31,2,13,6080
1356005789,5810,1016.0100097656250000,42.0959205627441400,572.0410156250000000,4.1121201515197750,55.3302688598632800,55,102,100,78,83,15541,0,0,0,0,2147124918,2147770432,2147574345,2147570797,3557,2,13,2602
1356009389,5810,1012.6199951171875000,42.4785194396972660,572.4678955078125000,4.0988430976867680,55.2775802612304700,55,97,100,77,83,15544,0,0,0,0,2147123437,2147768777,2147574354,2147571419,2977,2,13,177
1356012989,5811,1013.1799926757812000,41.9092788696289060,572.0383911132812000,4.1121997833251950,55.3533706665039060,55,101,101,79,82,15537,0,0,0,0,2147124745,2147772982,2147575369,2147570861,3434,3,13,56493
1356016589,5810,1015.5000000000000000,42.4625511169433600,572.4437255859375000,4.0995979309082030,55.2819290161132800,54,98,100,78,83,15536,0,0,0,0,2147125229,2147774674,2147573613,2147571300,3430,3,13,30317
1356020189,5813,1016.7500000000000000,42.3068885803222660,572.4857788085938000,4.0982861518859860,55.2997398376464840,55,98,102,77,82,15534,0,0,0,0,2147124635,2147778715,2147574400,2147572617,69,3,13,33553
1356023789,5808,1011.9600219726562000,41.9518013000488300,572.9976806640625000,4.0823688507080080,55.3610191345214840,55,99,100,80,83,15535,0,0,0,0,2147124434,2147773522,2147577581,2147571300,3488,2,13,63168
1356027389,5809,1009.4600219726562000,42.2671012878418000,573.6043701171875000,4.0634980201721190,55.3217887878418000,54,98,100,77,83,15536,0,0,0,0,2147127168,2147776905,2147572480,2147568329,244,3,13,46019
1356030989,5812,1006.3900146484375000,43.1459999084472660,573.9481201171875000,4.0528049468994140,55.1982688903808600,54,100,101,77,82,15535,0,0,0,0,2147124525,2147771968,2147573412,2147572306,602,3,13,13461
1356034589,5808,1009.2000122070312000,43.6208992004394500,573.9653930664062000,4.0522670745849610,55.1252517700195300,55,101,100,77,83,15546,0,0,0,0,2147126957,2147776722,2147571885,2147570953,634,2,13,57184
1356038189,5809,1010.2700195312500000,43.7274093627929700,574.0385131835938000,4.0499949455261230,55.1137619018554700,55,98,101,78,80,15543,0,0,0,0,2147124032,2147770706,2147582134,2147569938,608,3,13,62129
1356041789,5810,1013.8800048828125000,43.0899887084960940,573.5593261718750000,4.0648989677429200,55.1971702575683600,55,99,101,78,82,15549,0,0,0,0,2147126400,2147773129,2147575030,2147573696,3118,2,13,20102
1356045389,5810,1018.1699829101562000,42.4916305541992200,572.9802856445312000,4.0829091072082520,55.2813911437988300,55,99,101,78,83,15550,0,0,0,0,2147123510,2147773248,2147573641,2147567634,159,3,13,1657
1356048989,5811,1017.7500000000000000,43.0316696166992200,573.6671752929688000,4.0615429878234860,55.2116394042968750,55,98,99,78,82,15549,0,0,0,0,2147123382,2147775094,2147576064,2147571136,104,2,13,64417
1356052589,5807,1018.5499877929688000,42.5088500976562500,573.2041015625000000,4.0759491920471190,55.2817802429199200,54,99,100,78,82,15549,0,0,0,0,2147122496,2147773238,2147574107,2147568978,292,3,13,45120
1356056189,5807,1019.9799804687500000,42.3047485351562500,572.9094848632812000,4.0851101875305180,55.3043098449707000,56,99,101,77,83,15548,0,0,0,0,2147126427,2147774016,2147573540,2147569728,287,3,13,21511
1356059789,5809,1025.0899658203125000,42.3192291259765600,572.3632202148438000,4.1020979881286620,55.2966384887695300,54,98,100,78,81,15546,0,0,0,0,2147126628,2147771629,2147574902,2147571492,52,3,13,57147
1356063389,5810,1027.5500488281250000,41.9988403320312500,572.0064086914062000,4.1131939888000490,55.3439903259277340,55,97,100,78,82,15549,0,0,0,0,2147123465,2147769782,2147577078,2147570313,3223,3,13,43227
1356066989,5812,1025.5799560546875000,41.0475692749023440,571.6633300781250000,4.1238632202148440,55.4811897277832000,54,98,100,78,82,15546,0,0,0,0,2147123099,2147771318,2147570797,2147569563,85,3,13,49083
1356070589,5808,1024.6899414062500000,41.7151489257812500,572.0518798828125000,4.1117777824401855,55.3823394775390600,55,98,100,78,82,15542,0,0,0,0,2147124470,2147776530,2147579309,2147570797,3494,3,13,62206
1356074189,5812,1026.9599609375000000,41.8778305053710940,572.0064086914062000,4.1131939888000490,55.3606605529785160,54,98,102,78,82,15541,0,0,0,0,2147123995,2147769600,2147569216,2147571776,3413,3,13,32284
1356077789,5809,1018.0599975585938000,42.0976295471191400,572.7968139648438000,4.0886168479919430,55.3391609191894500,55,100,100,78,81,15544,0,0,0,0,2147127524,2147771264,2147577609,2147568740,615,3,13,29339
1356081389,5808,1020.1099853515625000,42.1840209960937500,573.2598876953125000,4.0742111206054690,55.3259391784668000,55,100,100,78,82,15546,0,0,0,0,2147124050,2147772278,2147573458,2147571556,387,3,13,4672
1356084989,5811,1017.2700195312500000,42.7226982116699200,573.4204711914062000,4.0692181587219240,55.2487602233886700,54,99,101,78,83,15546,0,0,0,0,2147124132,2147771456,2147576777,2147568658,35,3,13,6222
1356088589,5810,1016.3400268554688000,42.4010696411132800,573.6956787109375000,4.0606560707092285,55.3044395446777340,54,98,101,77,82,15544,0,0,0,0,2147121828,2147770038,2147575844,2147572297,305,3,13,15453
1356092189,5811,1016.0300292968750000,43.4697914123535160,574.8883056640625000,4.0235519409179690,55.1584205627441400,55,98,100,77,82,15534,0,0,0,0,2147120685,2147770806,2147574537,2147568978,3570,2,13,20225
1356095789,5809,1015.4899902343750000,43.9930000305175800,574.8845825195312000,4.0236659049987790,55.0877609252929700,54,98,101,79,82,15545,0,0,0,0,2147126537,2147772132,2147574683,2147570331,3532,2,13,54515
1356099389,5808,1017.5999755859375000,43.8992118835449200,574.5206909179688000,4.0349922180175780,55.0967483520507800,55,100,101,78,83,15542,0,0,0,0,2147124937,2147772918,2147574710,2147569014,3267,3,13,61501
1356102989,5809,1018.5300292968750000,42.8796005249023440,574.5280761718750000,4.0347609519958500,55.2392692565918000,55,99,100,77,83,15542,0,0,0,0,2147126171,2147775552,2147575030,2147569179,2841,3,13,27467
1356106589,5809,1018.8699951171875000,43.2594184875488300,573.8801269531250000,4.0549201965332030,55.1811103820800800,54,100,100,77,80,15543,0,0,0,0,2147123529,2147778523,2147573787,2147571958,148,3,13,11011
1356110189,5809,1024.8599853515625000,42.4156188964843750,572.8052978515625000,4.0883498191833500,55.2890510559082000,54,98,100,79,82,15542,0,0,0,0,2147124214,2147768374,2147573760,2147571273,239,3,13,2016
1356113789,5811,1018.8699951171875000,42.5427703857421900,573.3870239257812000,4.0702590942382810,55.2751388549804700,55,98,100,78,83,15542,0,0,0,0,2147126939,2147772918,2147576338,2147570294,3523,3,13,16019
1356117357,5810,1015.1699829101562000,43.1489295959472660,574.5032958984375000,4.0355319976806640,55.2041015625000000,55,99,100,78,82,15543,0,0,0,0,2147124452,2147770569,2147574948,2147571721,3261,3,13,61979
